User: anonymous   Login
Location: Caltech
(34.1382°N, 118.1253°W)
Time: 06:52:28
(UTC-07:00)
Language:

Cosmos 1937 Rocket - Orbit

View from above orbital plane
View from above orbital plane
View from above satellite
View from above satellite

Ground track
Ground track

The orbit data is extracted from the following two-line orbital elements,

1 19039U 88029B   15146.45289638  .00000078  00000-0  34316-4 0  9997
2 19039 074.0488 245.4434 0024689 246.6321 190.6999 14.38212181422635
Epoch (UTC): 26 May 2015 10:52:10
Eccentricity: 0.0024689
inclination: 74.0488°
perigee height: 747 km
apogee height: 782 km
right ascension of ascending node: 245.4434°
argument of perigee: 246.6321°
revolutions per day: 14.38212181
mean anomaly at epoch: 190.6999°
orbit number at epoch: 42263

The dashed part of the orbit path shows where the satellite is in the earth's shadow,  

DLR